| time (UTC) | temp C | wind direction | speed KPH | gust KPH | rain 1hr cm | rain 24hr cm | rain mn cm | humidity % | barometer mb |
| 20260506234921 | 24 | 999 | 3.2 | 0.0 | 0.00 | 0.00 | 0.00 | 35 | |
| 20260506231921 | 25 | 999 | 3.2 | 0.0 | 0.00 | 0.00 | 0.00 | 35 | |
| 20260506224921 | 25 | 999 | 3.2 | 0.0 | 0.00 | 0.00 | 0.00 | 32 | |
| 20260506221921 | 25 | 999 | 6.4 | 0.0 | 0.00 | 0.00 | 0.00 | 34 | |
| 20260506214921 | 27 | 999 | 3.2 | 0.0 | 0.00 | 0.00 | 0.00 | 33 | |
| 20260506211921 | 27 | 999 | 3.2 | 0.0 | 0.00 | 0.00 | 0.00 | 34 | |
| 20260506204921 | 26 | 999 | 3.2 | 0.0 | 0.00 | 0.00 | 0.00 | 37 | |
| 20260506201921 | 26 | 999 | 1.6 | 0.0 | 0.00 | 0.00 | 0.00 | 36 | |
| 20260506194921 | 26 | 999 | 1.6 | 0.0 | 0.00 | 0.00 | 0.00 | 38 | |
| 20260506191921 | 26 | 999 | 4.8 | 0.0 | 0.00 | 0.00 | 0.00 | 37 | |
| 20260506184921 | 25 | 999 | 4.8 | 0.0 | 0.00 | 0.00 | 0.00 | 38 | |
| 20260506181921 | 25 | 999 | 3.2 | 0.0 | 0.00 | 0.00 | 0.00 | 38 | |
| 20260506174921 | 26 | 999 | 1.6 | 0.0 | 0.00 | 0.00 | 0.00 | 37 | |
| 20260506171922 | 26 | 999 | 1.6 | 0.0 | 0.00 | 0.00 | 0.00 | 36 | |
| 20260506164921 | 26 | 999 | 1.6 | 0.0 | 0.00 | 0.00 | 0.00 | 34 | |
| 20260506161921 | 23 | 999 | 4.8 | 0.0 | 0.00 | 0.00 | 0.00 | 33 | |
| 20260506154921 | 23 | 999 | 1.6 | 0.0 | 0.00 | 0.00 | 0.00 | 31 | |
| 20260506151921 | 23 | 999 | 3.2 | 0.0 | 0.00 | 0.00 | 0.00 | 31 | |
| 20260506144921 | 20 | 999 | 3.2 | 0.0 | 0.00 | 0.00 | 0.00 | 36 | |
| 20260506141921 | 17 | 999 | 1.6 | 0.0 | 0.00 | 0.00 | 0.00 | 40 | |
| 20260506134921 | 16 | 999 | 0.0 | 0.0 | 0.00 | 0.00 | 0.00 | 45 | |
| 20260506131921 | 12 | 999 | 0.0 | 0.0 | 0.00 | 0.00 | 0.00 | 56 | |
| 20260506124921 | 9 | 999 | 0.0 | 0.0 | 0.00 | 0.00 | 0.00 | 60 | |
| 20260506121921 | 8 | 999 | 1.6 | 0.0 | 0.00 | 0.00 | 0.00 | 64 | |
| 20260506114921 | 8 | 999 | 0.0 | 0.0 | 0.00 | 0.00 | 0.00 | 65 | |
| 20260506111921 | 8 | 999 | 0.0 | 0.0 | 0.00 | 0.00 | 0.00 | 63 | |
| 20260506104921 | 9 | 999 | 0.0 | 0.0 | 0.00 | 0.00 | 0.00 | 63 | |
| 20260506101921 | 10 | 999 | 0.0 | 0.0 | 0.00 | 0.00 | 0.00 | 61 | |
| 20260506094921 | 10 | 999 | 0.0 | 0.0 | 0.00 | 0.00 | 0.00 | 60 | |
| 20260506091921 | 10 | 999 | 1.6 | 0.0 | 0.00 | 0.00 | 0.00 | 58 | |
| 20260506084921 | 10 | 999 | 0.0 | 0.0 | 0.00 | 0.00 | 0.00 | 58 | |
| 20260506081921 | 11 | 999 | 0.0 | 0.0 | 0.00 | 0.00 | 0.00 | 58 | |
| 20260506071921 | 12 | 999 | 0.0 | 0.0 | 0.00 | 0.00 | 0.00 | 49 | |
| 20260506061921 | 13 | 999 | 0.0 | 0.0 | 0.00 | 0.00 | 0.00 | 48 | |
| 20260506044921 | 15 | 999 | 0.0 | 0.0 | 0.00 | 0.00 | 0.00 | 41 | |
| 20260506041921 | 15 | 999 | 0.0 | 0.0 | 0.00 | 0.00 | 0.00 | 40 | |
| 20260506031922 | 17 | 999 | 0.0 | 0.0 | 0.00 | 0.00 | 0.00 | 37 | |
| 20260506021922 | 21 | 999 | 0.0 | 0.0 | 0.00 | 0.00 | 0.00 | 29 | |
| 20260506014921 | 21 | 999 | 1.6 | 0.0 | 0.00 | 0.00 | 0.00 | 29 | |
| 20260506011921 | 22 | 999 | 0.0 | 0.0 | 0.00 | 0.00 | 0.00 | 28 | |
| 20260506004921 | 23 | 999 | 3.2 | 0.0 | 0.00 | 0.00 | 0.00 | 26 | |
| 20260506001921 | 23 | 999 | 3.2 | 0.0 | 0.00 | 0.00 | 0.00 | 26 |